Showing default

QIANFAN-31, 61564

Orbit data source: Space-Track

QIANFAN-31, 61564 is a Chinese payload satellite in LEO that was launched on Tue, 15 Oct 2024 UTC via a CHANG ZHENG 6A launch vehicle from the Taiyaun Space Center, China (TSC). Payload-class satellites include a variety of spacecraft equipped with specific instruments for various scientific and technological missions. These include communications satellites like Starlink; space stations such as the ISS; scientific satellites like the Hubble; Earth observation satellites from companies like Planet Labs, Umbra, and HawkEye 360; GPS; miniature CubeSats for education and research; and military/defense satellites.

Loading next visibility...
Identifier
61564, 2024-185N
Orbit
LEO
Country
Flag of CNCN / PRC
Related business
Manufacturer
GESIH/SECM
Mission
Operational Commercial Communications
Bus & Motor
QIANFAN, Unknown motor
Mass
267 kg wet, ~267 kg dry
Launch date (UTC)
2024-10-15 (1 year ago)
Launch vehicle
CHANG ZHENG 6A
Launch site
Taiyaun Space Center, China (TSC)
Object type
Payload
Rocket body
Debris
Shape & HBR
Box + 1 Pan, 5.0 m
Radar Cross Section
13.200 m², Large (>1 m²)

Expand to show TLE details & history
Last TLE update: 7 hours ago

TLE from 7 hours ago
0 QIANFAN-31
1 61564U 24185N   26036.50256097  .00000221  00000-0  28902-3 0  9992
2 61564  88.9735  74.9108 0005781 215.5723 144.5047 13.57991735 75590
Epoch: 2026-02-05T12:03Z
TLE epoch observation values (Epoch: 2026-02-05T12:03:41.267Z)
Latitude
-0.00008°
Longitude
118.33499°
Altitude
1,049.457 km
Speed
7.325 km/s
True Right ascension
04h 59m 38s
True Declination
0° 00' 00"
Sunlit
Object was in daylight at epoch
Visualization orbit readout
Latitude
Unknown
Longitude
Unknown
Altitude
Unknown
Speed
Unknown
Apparent Right ascension
Unknown
Apparent Declination
Unknown
Sunlit
N/A
Visualization observer readout
Local Sidereal Time
20:59:38
Azimuth
Unknown
Elevation
Unknown
Doppler factor
Unknown
Orbital elements
Apogee altitude
1,044.329 km
Perigee altitude
1,035.752 km
Semi-major axis
7,418.178 km
Eccentricity
0.00058
Inclination
88.9735°
RAAN
74.9108°
Arg. of periapsis
215.5723°
True anomaly
144.54314°
Mean anomaly
144.5047°
Eccentric anomaly
144.52392°
Mean motion
3.39701 °/min
Orbital period
105.98 mins
BSTAR
0.00028902
Loading maneuver chart data...
Computing Atmospheric mass density...
Loading historical data...
Loading historical data...
Loading historical data...
Loading historical data...
Loading historical data...
Loading historical data...
Loading historical data...

Documentation

Showing up to 5 results
|